Flag for U.S.A. Weather past 2 weeks in Aurora, Illinois, U.S.A.

Now
74 °F

Sunny.


Feels Like: 75 °F
Forecast: 62 / 85 °F
Wind: No wind

Location: Dupage Airport

Current Time: Aug 20, 2014 at 9:48:05 AM

Latest Report: Aug 20, 2014 at 8:52 AM


Visibility: 10 mi

Pressure: 29.85 "Hg

Humidity: 74%

Dew point: 65 °F

Location of AuroraLocation

Historic Weather in Aurora — Graph

°F

Aurora temperature yesterday

Maximum temperature yesterday: 85 °F (at 3:52 PM)
Minimum temperature yesterday: 68 °F (at 11:52 PM)
Average temperature yesterday: 76 °F

Past Weeks' High & Low Weather Summary

 TemperatureHumidityPressure
High85 °F (Aug 19, 3:52 PM)97% (Aug 18, 2:52 AM)30.10 "Hg (Aug 18, 2:52 AM)
Low51 °F (Aug 15, 2:52 AM)39% (Aug 6, 4:52 PM)29.68 "Hg (Aug 19, 3:52 PM)
Average70 °F72%29.96 "Hg
* Reported Aug 5 7:52 AM — Aug 20 7:52 AM, Aurora, Weather by CustomWeather, © 2014

Note: Actual official high and low records may vary slightly from our data, if they occured in-between our weather recording intervals... More about our weather records

Advertising

Aurora weather history for previous 24 hours

 ConditionsComfort  
Time TempWeatherWind HumidityBarometerVisibility
7:52 AM
Aug 20
69 °FSunny.No wind81%29.85 "Hg10 mi
6:52 AM65 °FPassing clouds.No wind87%29.83 "Hg9 mi
5:52 AM63 °FClear.No wind93%29.82 "Hg9 mi
4:52 AM64 °FClear.No wind90%29.81 "Hg10 mi
3:52 AM65 °FClear.6 mph91%29.80 "Hg10 mi
2:52 AM66 °FClear.6 mph87%29.78 "Hg10 mi
1:52 AM67 °FClear.5 mph85%29.78 "Hg10 mi
12:52 AM67 °FClear.6 mph85%29.78 "Hg10 mi
11:52 PM
Aug 19
68 °FClear.3 mph82%29.77 "Hg10 mi
10:52 PM71 °FClear.5 mph76%29.76 "Hg10 mi
9:52 PM72 °FClear.6 mph76%29.75 "Hg10 mi
8:52 PM75 °FClear.6 mph71%29.73 "Hg10 mi
7:52 PM78 °FScattered clouds.8 mph64%29.71 "Hg10 mi
6:52 PM82 °FSunny.9 mph56%29.70 "Hg10 mi
5:52 PM84 °FPassing clouds.14 mph51%29.70 "Hg10 mi
4:52 PM85 °FSunny.18 mph48%29.69 "Hg10 mi
3:52 PM85 °FSunny.17 mph50%29.68 "Hg10 mi
2:52 PM83 °FSunny.13 mph51%29.69 "Hg10 mi
1:52 PM81 °FSunny.16 mph62%29.71 "Hg10 mi
12:52 PM79 °FPartly sunny.24 mph74%29.72 "Hg10 mi
11:52 AM78 °FOvercast.14 mph76%29.73 "Hg9 mi
10:52 AM79 °FOvercast.13 mph77%29.72 "Hg9 mi
9:52 AM78 °FOvercast.16 mph76%29.72 "Hg9 mi
Weather by CustomWeather, © 2014

See weather overviewHow to use our weather pages